{"data":{"norad_id":48301,"intl_designator":"2021-036AB","name":"STARLINK-2537","alt_names":[],"object_type":"PAYLOAD","status":"ACTIVE","operator":null,"country":"US","launch_date":"2021-04-29","launch_site_code":"AFETR","launch_vehicle":null,"mission":null,"orbit_class":"UNKNOWN","rcs_meters":null,"size_class":null,"mass_kg":null,"dimensions":null,"purposes":["comms"],"wikipedia_slug":null,"has_3d_model":false,"image_url":null,"decayed_at":null,"tle_current":{"epoch":"2026-05-25T02:51:38.427264Z","epoch_age_seconds":64831,"freshness":"FRESH","line1":"1 48301U 21036AB  26145.11919476  .00000534  00000+0  28960-4 0  9994","line2":"2 48301  53.1617  95.7004 0001271  85.4192 274.6954 15.31706012279883","mean_motion":15.31706012,"eccentricity":0.0001271,"inclination_deg":53.1617,"raan_deg":95.7004,"arg_perigee_deg":85.4192,"mean_anomaly_deg":274.6954,"bstar":2.896e-5,"rev_number":27988,"period_min":94.012818956018,"perigee_km":469.85158383682,"apogee_km":471.59256381339,"semimajor_km":6848.8590738251,"source":"CELESTRAK","updated_at":"2026-05-25T13:38:16.676382Z"}}}